Location: Newark
(49.4642°N, 2.1122°E)
Time: 11:15:46
(UTC+00:00)

AO-85 - Visible Passes

Search period start: 03 July 2020 00:00
Search period end: 13 July 2020 00:00
Orbit: 521 x 762 km, 64.8° (Epoch: 12 March)

Date Brightness Start Highest point End Pass type
(mag) Time Alt. Az. Time Alt. Az. Time Alt. Az.
03 Jul ? 20:36:17 10° NW 20:40:16 54° SW 20:44:28 10° SSE visible
04 Jul ? 21:01:12 10° WNW 21:04:34 24° WSW 21:08:04 10° S visible
05 Jul ? 21:27:33 10° W 21:28:41 11° WSW 21:29:50 10° SW visible
